| time (UTC) | temp C | wind direction | speed KPH | gust KPH | rain 1hr cm | rain 24hr cm | rain mn cm | humidity % | barometer mb |
| 20260508084606 | 16 | 359 | 4.8 | 16.1 | 0.00 | 0.00 | 0.00 | 45 | 1017.8 |
| 20260508083054 | 17 | 359 | 6.4 | 12.9 | 0.00 | 0.00 | 0.00 | 47 | 1017.6 |
| 20260508081609 | 17 | 359 | 3.2 | 12.9 | 0.00 | 0.00 | 0.00 | 48 | 1017.6 |
| 20260508080044 | 16 | 359 | 3.2 | 8.0 | 0.00 | 0.00 | 0.00 | 49 | 1017.7 |
| 20260508074541 | 16 | 359 | 0.0 | 4.8 | 0.00 | 0.00 | 0.00 | 50 | 1017.6 |
| 20260508073043 | 16 | 359 | 1.6 | 4.8 | 0.00 | 0.00 | 0.00 | 50 | 1017.6 |
| 20260508071537 | 16 | 359 | 1.6 | 6.4 | 0.00 | 0.00 | 0.00 | 51 | 1017.5 |
| 20260508070026 | 15 | 359 | 1.6 | 3.2 | 0.00 | 0.00 | 0.00 | 51 | 1017.3 |
| 20260508064523 | 15 | 359 | 0.0 | 4.8 | 0.00 | 0.00 | 0.00 | 52 | 1016.9 |
| 20260508063021 | 15 | 359 | 0.0 | 1.6 | 0.00 | 0.00 | 0.00 | 54 | 1016.8 |
| 20260508061513 | 13 | 359 | 0.0 | 3.2 | 0.00 | 0.00 | 0.00 | 56 | 1016.6 |
| 20260508060007 | 13 | 359 | 1.6 | 4.8 | 0.00 | 0.00 | 0.00 | 56 | 1016.8 |
| 20260508054508 | 13 | 359 | 0.0 | 0.0 | 0.00 | 0.00 | 0.00 | 56 | 1016.6 |
| 20260508053002 | 13 | 359 | 0.0 | 6.4 | 0.00 | 0.00 | 0.00 | 56 | 1016.4 |
| 20260508051501 | 13 | 359 | 4.8 | 9.7 | 0.00 | 0.00 | 0.00 | 56 | 1016.6 |
| 20260508044544 | 13 | 359 | 4.8 | 8.0 | 0.00 | 0.00 | 0.00 | 56 | 1016.3 |
| 20260508043107 | 13 | 359 | 4.8 | 12.9 | 0.00 | 0.00 | 0.00 | 55 | 1016.2 |
| 20260508041555 | 14 | 359 | 8.0 | 12.9 | 0.00 | 0.00 | 0.00 | 54 | 1016.3 |
| 20260508040033 | 14 | 359 | 3.2 | 6.4 | 0.00 | 0.00 | 0.00 | 53 | 1016.1 |
| 20260508034533 | 14 | 359 | 3.2 | 6.4 | 0.00 | 0.00 | 0.00 | 53 | 1016.0 |
| 20260508033028 | 14 | 359 | 1.6 | 4.8 | 0.00 | 0.00 | 0.00 | 53 | 1015.9 |
| 20260508031519 | 14 | 359 | 0.0 | 6.4 | 0.00 | 0.00 | 0.00 | 53 | 1015.8 |
| 20260508030018 | 14 | 359 | 0.0 | 4.8 | 0.00 | 0.00 | 0.00 | 53 | 1015.6 |
| 20260508024518 | 14 | 359 | 4.8 | 9.7 | 0.00 | 0.00 | 0.00 | 53 | 1015.8 |
| 20260508023047 | 14 | 359 | 4.8 | 9.7 | 0.00 | 0.00 | 0.00 | 53 | 1015.8 |
| 20260508021547 | 14 | 359 | 6.4 | 14.5 | 0.00 | 0.00 | 0.00 | 53 | 1015.9 |
| 20260508020021 | 14 | 359 | 3.2 | 9.7 | 0.00 | 0.00 | 0.00 | 53 | 1016.0 |
| 20260508014545 | 14 | 359 | 3.2 | 12.9 | 0.00 | 0.00 | 0.00 | 53 | 1016.0 |
| 20260508013045 | 14 | 359 | 6.4 | 17.7 | 0.00 | 0.00 | 0.00 | 52 | 1015.7 |
| 20260508011544 | 15 | 359 | 6.4 | 17.7 | 0.00 | 0.00 | 0.00 | 52 | 1016.4 |
| 20260508010025 | 15 | 359 | 11.3 | 17.7 | 0.00 | 0.00 | 0.00 | 52 | 1016.5 |
| 20260508004522 | 15 | 359 | 9.7 | 20.9 | 0.00 | 0.00 | 0.00 | 52 | 1016.7 |
| 20260508003011 | 15 | 359 | 9.7 | 22.5 | 0.00 | 0.00 | 0.00 | 51 | 1016.8 |
| 20260508001513 | 15 | 359 | 9.7 | 17.7 | 0.00 | 0.00 | 0.00 | 50 | 1016.7 |
| 20260508000011 | 15 | 359 | 8.0 | 14.5 | 0.00 | 0.00 | 0.00 | 49 | 1016.6 |
| 20260507234509 | 15 | 359 | 8.0 | 12.9 | 0.00 | 0.00 | 0.00 | 49 | 1016.5 |
| 20260507233056 | 15 | 359 | 4.8 | 14.5 | 0.00 | 0.00 | 0.00 | 50 | 1016.4 |
| 20260507231557 | 16 | 359 | 4.8 | 9.7 | 0.00 | 0.00 | 0.00 | 51 | 1016.7 |
| 20260507230056 | 16 | 359 | 6.4 | 12.9 | 0.00 | 0.00 | 0.00 | 54 | 1016.6 |
| 20260507224536 | 16 | 359 | 0.0 | 0.0 | 0.00 | 0.00 | 0.00 | 55 | 1016.5 |
| 20260507223036 | 16 | 359 | 1.6 | 3.2 | 0.00 | 0.00 | 0.00 | 56 | 1016.6 |
| 20260507221532 | 16 | 359 | 0.0 | 4.8 | 0.00 | 0.00 | 0.00 | 55 | 1016.7 |
| 20260507220029 | 16 | 359 | 0.0 | 3.2 | 0.00 | 0.00 | 0.00 | 56 | 1016.7 |
| 20260507214527 | 16 | 359 | 0.0 | 4.8 | 0.00 | 0.00 | 0.00 | 56 | 1016.8 |
| 20260507213026 | 16 | 359 | 3.2 | 6.4 | 0.00 | 0.00 | 0.00 | 56 | 1016.9 |
| 20260507211535 | 16 | 359 | 4.8 | 9.7 | 0.00 | 0.00 | 0.00 | 56 | 1016.9 |
| 20260507210026 | 16 | 359 | 4.8 | 14.5 | 0.00 | 0.00 | 0.00 | 56 | 1017.2 |
| 20260507204524 | 16 | 359 | 6.4 | 17.7 | 0.00 | 0.00 | 0.00 | 56 | 1017.0 |
| 20260507203030 | 16 | 359 | 14.5 | 19.3 | 0.00 | 0.00 | 0.00 | 55 | 1016.9 |
| 20260507201520 | 16 | 359 | 14.5 | 19.3 | 0.00 | 0.00 | 0.00 | 54 | 1016.7 |
| 20260507200024 | 16 | 359 | 9.7 | 25.7 | 0.00 | 0.00 | 0.00 | 56 | 1016.5 |
| 20260507194553 | 16 | 359 | 14.5 | 27.4 | 0.00 | 0.00 | 0.00 | 58 | 1016.6 |
| 20260507193051 | 16 | 359 | 19.3 | 25.7 | 0.00 | 0.00 | 0.00 | 58 | 1016.5 |
| 20260507191550 | 16 | 359 | 17.7 | 25.7 | 0.00 | 0.00 | 0.00 | 57 | 1016.3 |
| 20260507190047 | 17 | 359 | 14.5 | 22.5 | 0.00 | 0.00 | 0.00 | 56 | 1016.2 |
| 20260507184547 | 17 | 359 | 16.1 | 20.9 | 0.00 | 0.00 | 0.00 | 54 | 1016.0 |
| 20260507183049 | 17 | 359 | 12.9 | 27.4 | 0.00 | 0.00 | 0.00 | 53 | 1015.9 |
| 20260507181515 | 17 | 359 | 22.5 | 33.8 | 0.00 | 0.00 | 0.00 | 50 | 1015.7 |
| 20260507180015 | 17 | 359 | 17.7 | 33.8 | 0.00 | 0.00 | 0.00 | 48 | 1015.7 |
| 20260507174515 | 17 | 359 | 24.1 | 38.6 | 0.00 | 0.00 | 0.00 | 44 | 1015.6 |
| 20260507173012 | 17 | 359 | 19.3 | 33.8 | 0.00 | 0.00 | 0.00 | 52 | 1015.6 |
| 20260507171512 | 18 | 359 | 20.9 | 35.4 | 0.00 | 0.00 | 0.00 | 50 | 1015.5 |
| 20260507170011 | 17 | 359 | 20.9 | 40.2 | 0.00 | 0.00 | 0.00 | 51 | 1015.5 |
| 20260507164509 | 18 | 359 | 25.7 | 40.2 | 0.00 | 0.00 | 0.00 | 51 | 1015.4 |
| 20260507163008 | 18 | 359 | 25.7 | 38.6 | 0.00 | 0.00 | 0.00 | 49 | 1015.3 |
| 20260507161508 | 18 | 359 | 20.9 | 30.6 | 0.00 | 0.00 | 0.00 | 50 | 1015.3 |
| 20260507160017 | 18 | 359 | 19.3 | 33.8 | 0.00 | 0.00 | 0.00 | 48 | 1015.3 |
| 20260507154538 | 18 | 359 | 24.1 | 30.6 | 0.00 | 0.00 | 0.00 | 48 | 1015.1 |
| 20260507153043 | 18 | 359 | 22.5 | 33.8 | 0.00 | 0.00 | 0.00 | 50 | 1015.2 |
| 20260507151521 | 18 | 359 | 27.4 | 41.8 | 0.00 | 0.00 | 0.00 | 46 | 1015.3 |
| 20260507150026 | 18 | 359 | 25.7 | 40.2 | 0.00 | 0.00 | 0.00 | 45 | 1015.4 |
| 20260507143039 | 20 | 359 | 24.1 | 35.4 | 0.00 | 0.00 | 0.00 | 41 | 1015.2 |
| 20260507141537 | 20 | 359 | 16.1 | 33.8 | 0.00 | 0.00 | 0.00 | 41 | 1015.5 |
| 20260507140032 | 20 | 359 | 20.9 | 37.0 | 0.00 | 0.00 | 0.00 | 41 | 1015.5 |
| 20260507134531 | 20 | 359 | 22.5 | 32.2 | 0.00 | 0.00 | 0.00 | 42 | 1015.6 |
| 20260507133030 | 18 | 359 | 22.5 | 37.0 | 0.00 | 0.00 | 0.00 | 45 | 1015.9 |
| 20260507131501 | 18 | 359 | 20.9 | 33.8 | 0.00 | 0.00 | 0.00 | 45 | 1016.0 |
| 20260507130111 | 18 | 359 | 27.4 | 37.0 | 0.00 | 0.00 | 0.00 | 46 | 1016.1 |
| 20260507124635 | 18 | 359 | 22.5 | 37.0 | 0.00 | 0.00 | 0.00 | 47 | 1016.2 |
| 20260507123103 | 18 | 359 | 22.5 | 37.0 | 0.00 | 0.00 | 0.00 | 48 | 1016.2 |
| 20260507121555 | 18 | 359 | 19.3 | 29.0 | 0.00 | 0.00 | 0.00 | 47 | 1016.4 |
| 20260507120053 | 19 | 359 | 17.7 | 25.7 | 0.00 | 0.00 | 0.00 | 49 | 1016.5 |
| 20260507114607 | 18 | 359 | 17.7 | 27.4 | 0.00 | 0.00 | 0.00 | 49 | 1016.6 |
| 20260507113054 | 19 | 359 | 17.7 | 25.7 | 0.00 | 0.00 | 0.00 | 49 | 1016.5 |
| 20260507111548 | 20 | 359 | 11.3 | 19.3 | 0.00 | 0.00 | 0.00 | 48 | 1016.6 |
| 20260507110048 | 19 | 359 | 3.2 | 14.5 | 0.00 | 0.00 | 0.00 | 50 | 1016.6 |
| 20260507104517 | 20 | 359 | 1.6 | 8.0 | 0.00 | 0.00 | 0.00 | 50 | 1016.5 |
| 20260507103013 | 19 | 359 | 1.6 | 8.0 | 0.00 | 0.00 | 0.00 | 52 | 1016.5 |
| 20260507101507 | 18 | 185 | 1.6 | 6.4 | 0.00 | 0.00 | 0.00 | 54 | 1016.5 |
| 20260507100004 | 18 | 359 | 1.6 | 6.4 | 0.00 | 0.00 | 0.00 | 55 | 1016.6 |
| 20260507094600 | 17 | 359 | 0.0 | 4.8 | 0.00 | 0.00 | 0.00 | 57 | 1016.7 |
| 20260507093059 | 17 | 359 | 0.0 | 6.4 | 0.00 | 0.00 | 0.00 | 57 | 1016.7 |
| 20260507091554 | 17 | 359 | 0.0 | 6.4 | 0.00 | 0.00 | 0.00 | 59 | 1016.7 |
| 20260507090050 | 16 | 359 | 1.6 | 4.8 | 0.00 | 0.00 | 0.00 | 60 | 1016.7 |